[[{"header":{"parameterUnit":"m.s-1","parameterCategory":1,"la1":30.2992,"la2":30.254,"lo1":-89.0895,"lo2":-89.0443,"dy":0.0025,"dx":0.0025,"nx":19,"ny":19,"refTime":"2026-04-19T03:00:00:Z","depth":0,"parameterNumber":2,"parameterNumberName":"U-component_of_WINDS"},"data":[0,0,0,-0.7785,-0.7785,-0.7764,-0.7764,-0.7778,-0.7778,0,0,0,0,0,0,0,0,0,0,0,-0.7813,-0.7814,-0.7785,-0.7785,-0.7764,-0.7764,-0.7778,-0.7778,0,0,0,0,0,0,0,0,0,0,0,-0.7813,-0.7814,-0.7815,-0.7785,-0.7764,-0.7764,-0.7778,-0.7779,0,0,0,0,0,0,0,0,0,0,-0.7793,-0.784,-0.7814,-0.7815,-0.7785,-0.7764,-0.7764,-0.7779,-0.7779,-0.7804,0,-0.783,0,-0.7804,-0.7782,-0.7782,0,0,0,-0.7769,-0.784,-0.7814,-0.7815,-0.7785,-0.7765,-0.7769,-0.7779,-0.7779,-0.7805,-0.783,-0.7829,-0.7805,-0.7782,-0.7782,-0.7975,-0.7977,0,0,-0.777,-0.7822,-0.7814,-0.7816,-0.7819,-0.777,-0.7769,-0.7778,-0.781,-0.783,-0.7829,-0.7805,-0.7782,-0.7783,-0.7973,-0.7976,0,0,0,-0.7784,-0.7824,-0.7796,-0.7816,-0.7809,-0.777,-0.7768,-0.7809,-0.7796,-0.7829,-0.7805,-0.7783,-0.7783,-0.7972,-0.7974,-0.8109,0,0,0,-0.7784,-0.7832,-0.7798,-0.783,-0.781,-0.7809,-0.78,-0.7795,-0.7795,-0.7805,-0.7783,-0.7784,-0.797,-0.7973,-0.8101,-0.8165,0,0,0,-0.7807,-0.7834,-0.7839,-0.7833,-0.7825,-0.7807,-0.7794,-0.7794,-0.7781,-0.7782,-0.7784,-0.7968,-0.7972,-0.8094,-0.8153,-0.8234,0,0,0,-0.7848,-0.7958,-0.7842,-0.7956,-0.7826,-0.7889,-0.7793,-0.7838,-0.7854,-0.7783,-0.797,-0.7974,-0.8092,-0.8146,-0.8227,-0.8313,-0.8353,0,0,-0.8017,-0.798,-0.8044,-0.7939,-0.8037,-0.7888,-0.8006,-0.7972,-0.7924,-0.7961,-0.7965,-0.8104,-0.8153,-0.8232,-0.8552,-0.8584,0,0,0,-0.8115,-0.8162,-0.8176,-0.8194,-0.8169,-0.8155,-0.8096,-0.8084,-0.8113,-0.7953,-0.8151,-0.8178,-0.8223,-0.8262,-0.8289,-0.8326,-0.7993,-0.7993,-0.7992,-0.8432,-0.8364,-0.8465,-0.8396,-0.8415,-0.8353,-0.8363,-0.8336,-0.8262,-0.831,-0.8322,-0.8524,-0.8572,-0.8592,-0.8631,-0.8359,-0.836,-0.836,-0.836,-0.8677,-0.8734,-0.8632,-0.8695,-0.8624,-0.8676,-0.8622,-0.8568,-0.8608,-0.8509,-0.8545,-0.8447,-0.8629,-0.866,-0.837,-0.8368,-0.8367,-0.8366,-0.8365,-0.888,-0.8895,-0.8877,-0.8896,-0.8919,-0.8844,-0.8888,-0.882,-0.8757,-0.8793,-0.88,-0.8798,-0.879,-0.88,-0.8801,-0.8802,-0.8802,-0.8803,-0.8803,-0.91,-0.9074,-0.9118,-0.9102,-0.9105,-0.9101,-0.9041,-0.9043,-0.9029,-0.8977,-0.8976,-0.8902,-0.8658,-0.8601,-0.8814,-0.8812,-0.8811,-0.881,-0.8809,-0.9379,-0.9305,-0.9374,-0.9377,-0.9354,-0.9383,-0.9295,-0.9305,-0.9297,-0.9322,-0.9237,-0.9067,-0.9026,-0.9004,-0.8956,-0.9249,-0.9249,-0.9249,-0.9249,-0.9554,-0.9525,-0.9581,-0.9592,-0.9594,-0.9522,-0.9605,-0.956,-0.9502,-0.9494,-0.944,-0.937,-0.935,-0.9321,-0.9292,-0.9247,-0.9607,-0.9607,-0.9607,-0.9724,-0.9693,-0.9776,-0.9716,-0.9693,-0.9676,-0.9753,-0.9771,-0.9689,-0.9621,-0.9487,-0.9471,-0.9357,-0.9322,-0.9255,-0.9211,-0.9127,0,0]},{"header":{"parameterUnit":"m.s-1","parameterCategory":1,"la1":30.2992,"la2":30.254,"lo1":-89.0895,"lo2":-89.0443,"dy":0.0025,"dx":0.0025,"nx":19,"ny":19,"refTime":"2026-04-19T03:00:00:Z","depth":0,"parameterNumber":3,"parameterNumberName":"V-component_of_WINDS"},"data":[0,0,0,1.5968,1.5968,1.5975,1.5975,1.5968,1.5968,0,0,0,0,0,0,0,0,0,0,0,1.5958,1.5958,1.5968,1.5968,1.5975,1.5975,1.5968,1.5968,0,0,0,0,0,0,0,0,0,0,0,1.5958,1.5958,1.5958,1.5968,1.5975,1.5975,1.5968,1.5968,0,0,0,0,0,0,0,0,0,0,1.5964,1.5947,1.5958,1.5958,1.5968,1.5975,1.5975,1.5969,1.5968,1.5959,0,1.5949,0,1.5959,1.5967,1.5967,0,0,0,1.5974,1.5947,1.5957,1.5958,1.5968,1.5975,1.5974,1.5969,1.5968,1.5958,1.5949,1.595,1.5958,1.5967,1.5966,1.5895,1.5895,0,0,1.5974,1.5955,1.5957,1.5956,1.5956,1.5973,1.5974,1.5969,1.5957,1.5949,1.595,1.5958,1.5966,1.5966,1.5896,1.5895,0,0,0,1.5969,1.5954,1.5964,1.5956,1.5959,1.5974,1.5974,1.5957,1.5962,1.595,1.5958,1.5966,1.5966,1.5897,1.5896,1.5847,0,0,0,1.5969,1.5951,1.5964,1.5952,1.5959,1.5958,1.5962,1.5963,1.5963,1.5958,1.5966,1.5966,1.5897,1.5896,1.585,1.5826,0,0,0,1.596,1.595,1.5949,1.5951,1.5953,1.5959,1.5964,1.5963,1.5968,1.5967,1.5966,1.5898,1.5896,1.5852,1.583,1.58,0,0,0,1.5946,1.5905,1.5948,1.5906,1.5953,1.593,1.5964,1.5947,1.5941,1.5966,1.5897,1.5896,1.5853,1.5833,1.5803,1.577,1.5756,0,0,1.5883,1.5897,1.5874,1.5912,1.5876,1.593,1.5887,1.5898,1.5915,1.5901,1.5899,1.5849,1.583,1.5801,1.5684,1.5672,0,0,0,1.5847,1.583,1.5825,1.5819,1.5828,1.5833,1.5853,1.5858,1.5846,1.5904,1.5832,1.5821,1.5805,1.579,1.578,1.5766,1.5889,1.5889,1.5889,1.573,1.5755,1.5718,1.5744,1.5737,1.576,1.5756,1.5765,1.5792,1.5775,1.5769,1.5696,1.5678,1.567,1.5656,1.5756,1.5756,1.5756,1.5756,1.5639,1.5618,1.5656,1.5633,1.566,1.5641,1.5661,1.5681,1.5665,1.5702,1.5688,1.5723,1.5657,1.5645,1.5753,1.5753,1.5754,1.5754,1.5754,1.5562,1.5557,1.5564,1.5558,1.555,1.5578,1.5562,1.5587,1.5611,1.5598,1.5594,1.5595,1.5597,1.5595,1.5595,1.5594,1.5594,1.5594,1.5594,1.5479,1.5489,1.5474,1.5481,1.548,1.5482,1.5505,1.5505,1.551,1.5529,1.5529,1.5556,1.5647,1.5667,1.559,1.5591,1.5591,1.5591,1.5592,1.5373,1.5402,1.5377,1.5376,1.5387,1.5376,1.541,1.5407,1.541,1.5401,1.5432,1.5496,1.551,1.5518,1.5535,1.5428,1.5428,1.5428,1.5428,1.5307,1.5318,1.5298,1.5295,1.5296,1.5324,1.5293,1.5311,1.5333,1.5337,1.5357,1.5382,1.539,1.54,1.5411,1.5427,1.5294,1.5294,1.5294,1.5242,1.5254,1.5224,1.5248,1.5258,1.5266,1.5238,1.5231,1.5263,1.5289,1.5339,1.5345,1.5387,1.54,1.5424,1.544,1.547,0,0]}]]